Погода в Чхунчхоне

Южная Корея     37°52′33″N   127°43′42″E
темп.,
°C
ветер,
м/с
пор.,
м/с
влажн.,
%
обл.,
%
осадки,
мм/ч
давл.,
гПа
погр.,
м
21 июня, пн
пн2100:00+15юз11970 0.8 100211
03:00+14ююз119822 0.9 100311
06:00+15з009853 0.0 100442
09:00+19ююв027960 0.0 1005666
12:00+25ссз25420 0.3 10041989
15:00+25сз344547 0.3 10032028
18:00+20св237913 0.8 1005164
21:00+15св22962 0.9 100735
22 июня, вт
вт2200:00+13св22976 0.0 100842
03:00+13ссв119793 0.1 100920
06:00+13св11969 0.1 101021
09:00+19всв117020 0.1 1010656
12:00+25ссв135049 0.1 10081669
15:00+24св335465 0.6 10071215
18:00+20св248661 1.3 1008183
21:00+14всв2295100 1.9 101029
23 июня, ср
ср2300:00+13всв1196100 0.2 101138
03:00+13всв1198100 1.5 101179
06:00+13св129995 4.4 1012117
09:00+15св118946 4.8 1012301
12:00+23всв016370 0.3 10101208
15:00+21св027749 4.4 1009766
18:00+21с118750 4.6 100956
21:00+15св11910 4.8 101111
24 июня, чт
чт2400:00+13св11950 0.0 101212
03:00+11св11960 0.0 101214
06:00+12св11944 0.0 101225
09:00+20вюв006851 0.0 1012424
12:00+26ююв11508 0.1 10101517
15:00+24зсз325842 1.6 10091370
18:00+22с127851 1.6 1008151
21:00+17ссз0189100 2.0 101011
25 июня, пт
пт2500:00+15св1194100 0.0 101111
03:00+14ссз009759 0.0 101111
06:00+14ссв119725 0.0 101218
09:00+21ю00756 0.0 1011513
12:00+27ююз11483 0.0 10091765
15:00+29з113821 0.1 10072412
18:00+24ссз236972 0.3 1008215
21:00+19ссз118435 0.5 101011